EJA843 KJZI-KBNA

Flight info

Callsign EJA843
Flight time N/A
Altitude 43000
Route EXTVE1 IRQ DCT SWFFT SWFFT2
Aircraft C750/M-SBDE3FGHRWXY/S

Departure

Time 2026-04-12 18:35
Airport Charleston Executive Airport (KJZI)

Arrival

Time N/A
Airport Nashville International Airport (KBNA)
Time Latitude Longitude Altitude Speed Heading
2026-04-12 18:22 32.69846 -80.00761 24 ft 0 kts 189°
2026-04-12 18:31 32.69842 -80.00761 24 ft 3 kts 177°
2026-04-12 18:31 32.69831 -80.00741 26 ft 3 kts 102°
2026-04-12 18:31 32.69839 -80.00709 25 ft 4 kts 46°
2026-04-12 18:31 32.69924 -80.00685 29 ft 22 kts
2026-04-12 18:32 32.70125 -80.00684 25 ft 36 kts 359°
2026-04-12 18:32 32.70346 -80.00688 19 ft 23 kts 355°
2026-04-12 18:32 32.70381 -80.00816 17 ft 20 kts 268°
2026-04-12 18:32 32.70379 -80.01007 18 ft 26 kts 270°
2026-04-12 18:33 32.70378 -80.01192 17 ft 9 kts 270°
2026-04-12 18:33 32.70384 -80.01259 19 ft 8 kts 294°
2026-04-12 18:33 32.70427 -80.01279 19 ft 8 kts 356°
2026-04-12 18:33 32.70487 -80.01270 17 ft 0 kts 83°
2026-04-12 18:34 32.70491 -80.00975 16 ft 97 kts 89°
2026-04-12 18:34 32.70516 -79.99812 104 ft 168 kts 90°
2026-04-12 18:34 32.70537 -79.98302 549 ft 198 kts 92°
2026-04-12 18:35 32.70412 -79.96501 732 ft 244 kts 102°
2026-04-12 18:35 32.69544 -79.94763 1464 ft 256 kts 139°
2026-04-12 18:35 32.67866 -79.94071 1914 ft 258 kts 186°
2026-04-12 18:35 32.66397 -79.95108 2162 ft 256 kts 229°
2026-04-12 18:36 32.66067 -79.95718 2199 ft 265 kts 239°
2026-04-12 18:36 32.65815 -79.96408 2141 ft 276 kts 248°
2026-04-12 18:36 32.66806 -80.03271 1819 ft 214 kts 301°
2026-04-12 18:37 32.67691 -80.04786 1656 ft 234 kts 302°
2026-04-12 18:37 32.68383 -80.06538 1869 ft 235 kts 289°
2026-04-12 18:37 32.68890 -80.08383 2111 ft 235 kts 284°
2026-04-12 18:37 32.69244 -80.10263 2356 ft 233 kts 275°
2026-04-12 18:38 32.69404 -80.12152 2788 ft 220 kts 275°
2026-04-12 18:38 32.69766 -80.13250 3127 ft 217 kts 304°
2026-04-12 18:38 32.70789 -80.14471 3801 ft 201 kts 316°
2026-04-12 18:38 32.71798 -80.15696 4554 ft 216 kts 314°
2026-04-12 18:39 32.73257 -80.17474 5589 ft 236 kts 315°
2026-04-12 18:39 32.74045 -80.18411 6111 ft 246 kts 315°
2026-04-12 18:39 32.75293 -80.19893 6914 ft 261 kts 315°
2026-04-12 18:39 32.76609 -80.21461 7828 ft 268 kts 315°
2026-04-12 18:40 32.77912 -80.23009 9132 ft 261 kts 314°
2026-04-12 18:40 32.79181 -80.24507 10423 ft 253 kts 314°
2026-04-12 18:40 32.80415 -80.25953 11562 ft 244 kts 314°
2026-04-12 18:40 32.81610 -80.27343 12679 ft 237 kts 315°
2026-04-12 18:41 32.82776 -80.28691 13783 ft 230 kts 315°
2026-04-12 18:41 32.83910 -80.29993 14802 ft 223 kts 316°
2026-04-12 18:41 32.85002 -80.31238 15724 ft 217 kts 317°
2026-04-12 18:41 32.86081 -80.32462 16677 ft 212 kts 317°
2026-04-12 18:42 32.87145 -80.33661 17570 ft 209 kts 318°
2026-04-12 18:42 32.88202 -80.34845 18456 ft 208 kts 318°
2026-04-12 18:42 32.89256 -80.36019 19245 ft 206 kts 318°
2026-04-12 18:43 32.92388 -80.39472 21576 ft 203 kts 318°
2026-04-12 18:43 32.93424 -80.40601 22363 ft 201 kts 318°
2026-04-12 18:43 32.94447 -80.41709 23147 ft 200 kts 318°
2026-04-12 18:44 32.95299 -80.43008 23770 ft 209 kts 291°
2026-04-12 18:44 32.95485 -80.44812 24142 ft 229 kts 275°
2026-04-12 18:44 32.95476 -80.46751 24642 ft 239 kts 273°
2026-04-12 18:44 32.95448 -80.48768 25168 ft 248 kts 273°
2026-04-12 18:45 32.95417 -80.50863 25691 ft 258 kts 273°
2026-04-12 18:45 32.95383 -80.53041 26207 ft 268 kts 273°
2026-04-12 18:45 32.95331 -80.55303 26706 ft 279 kts 271°
2026-04-12 18:45 32.95111 -80.57653 27219 ft 291 kts 266°
2026-04-12 18:46 32.94876 -80.60094 27737 ft 300 kts 270°
2026-04-12 18:46 32.94907 -80.62603 28256 ft 307 kts 279°
2026-04-12 18:46 32.95224 -80.65113 28787 ft 314 kts 284°
2026-04-12 18:46 32.95566 -80.67724 29338 ft 324 kts 281°
2026-04-12 18:47 32.95803 -80.70436 29903 ft 333 kts 279°
2026-04-12 18:47 32.96021 -80.73213 30465 ft 341 kts 280°
2026-04-12 18:47 32.96291 -80.76049 30952 ft 347 kts 281°
2026-04-12 18:47 32.96581 -80.78935 31442 ft 354 kts 281°
2026-04-12 18:48 32.96857 -80.81882 31937 ft 361 kts 281°
2026-04-12 18:48 32.97127 -80.84884 32443 ft 367 kts 281°
2026-04-12 18:48 32.97477 -80.87869 32925 ft 369 kts 288°
2026-04-12 18:48 32.98320 -80.90753 33420 ft 368 kts 299°
2026-04-12 18:49 32.99584 -80.93412 33939 ft 369 kts 305°
2026-04-12 18:49 33.00924 -80.96041 34470 ft 373 kts 305°
2026-04-12 18:49 33.02283 -80.98746 34557 ft 389 kts 304°
2026-04-12 18:49 33.03692 -81.01552 34464 ft 408 kts 304°
2026-04-12 18:50 33.05184 -81.04518 34466 ft 424 kts 304°
2026-04-12 18:50 33.06725 -81.07581 34638 ft 434 kts 304°
2026-04-12 18:50 33.08286 -81.10696 34939 ft 440 kts 304°
2026-04-12 18:50 33.09870 -81.13854 35245 ft 446 kts 304°
2026-04-12 18:51 33.11478 -81.17058 35370 ft 456 kts 304°
2026-04-12 18:51 33.13104 -81.20298 35377 ft 467 kts 304°
2026-04-12 18:51 33.14793 -81.23674 35376 ft 479 kts 304°
2026-04-12 18:52 33.18279 -81.30654 35367 ft 499 kts 304°
2026-04-12 18:52 33.21891 -81.37897 35373 ft 507 kts 304°
2026-04-12 18:53 33.25453 -81.45062 35370 ft 495 kts 304°
2026-04-12 18:53 33.28923 -81.52039 35359 ft 486 kts 304°
2026-04-12 18:54 33.32342 -81.58938 35351 ft 478 kts 304°
2026-04-12 18:54 33.35789 -81.65655 35334 ft 469 kts 307°
2026-04-12 18:55 33.39434 -81.72023 35350 ft 468 kts 306°
2026-04-12 18:55 33.42967 -81.78691 35361 ft 479 kts 306°
2026-04-12 18:56 33.46679 -81.85391 35367 ft 487 kts 306°
2026-04-12 18:56 33.50382 -81.92277 35381 ft 494 kts 306°
2026-04-12 18:57 33.54168 -81.99218 35382 ft 500 kts 306°
2026-04-12 18:57 33.57964 -82.06253 35380 ft 503 kts 306°
2026-04-12 18:58 33.61746 -82.13244 35381 ft 501 kts 306°
2026-04-12 18:58 33.65519 -82.20242 35374 ft 499 kts 306°
2026-04-12 18:59 33.69277 -82.27227 35368 ft 497 kts 306°
2026-04-12 18:59 33.73029 -82.34208 35369 ft 496 kts 306°
2026-04-12 19:00 33.76757 -82.41163 35352 ft 494 kts 305°
2026-04-12 19:00 33.80472 -82.48106 35357 ft 493 kts 305°
2026-04-12 19:01 33.84177 -82.55041 35359 ft 492 kts 305°
2026-04-12 19:01 33.87849 -82.61929 35354 ft 492 kts 305°
2026-04-12 19:02 33.91545 -82.68865 35356 ft 491 kts 305°
2026-04-12 19:02 33.95245 -82.75802 35353 ft 491 kts 305°
2026-04-12 19:03 33.98943 -82.82706 35353 ft 490 kts 304°
2026-04-12 19:03 34.02562 -82.89623 35364 ft 490 kts 304°
2026-04-12 19:04 34.06201 -82.96568 35363 ft 489 kts 304°
2026-04-12 19:04 34.09838 -83.03506 35359 ft 489 kts 304°
2026-04-12 19:05 34.13503 -83.10452 35351 ft 488 kts 306°
2026-04-12 19:05 34.17785 -83.16703 35296 ft 484 kts 313°
2026-04-12 19:05 34.20092 -83.19652 34975 ft 481 kts 314°
2026-04-12 19:06 34.22423 -83.22532 34663 ft 479 kts 315°
2026-04-12 19:06 34.24765 -83.25383 34346 ft 477 kts 315°
2026-04-12 19:06 34.27107 -83.28215 34005 ft 474 kts 315°